Vorticity
44 18 -23 -11 12 19 -11 1 13 4 14 6 7 2 4 7 12 4 8 5 6 18 10 13 22 -0 3 -1 7 2 21 13 -5 34 27 21 3 9 -12 29 -15 -4 4 6
19 41 31 -20 16 -5 -4 20 8 2 4 5 3 0 3 10 18 10 6 4 -3 -1 7 12 11 10 11 8 2 -10 5 -2 15 6 -1 -19 -2 -4 5 17 42 15 13 -40
13 13 34 13 -21 28 9 28 13 16 7 0 9 7 8 2 -2 4 13 8 7 6 5 9 -7 -9 2 4 9 17 -0 23 2 -34 -29 -6 2 16 22 26 15 -19 5 -19
18 31 9 53 -9 -12 41 -12 24 -2 8 5 5 -8 0 13 14 6 4 12 15 18 9 8 15 17 1 1 17 27 21 8 8 8 4 31 25 9 2 14 23 -2 -28 -15
4 13 38 21 30 19 10 16 -32 8 2 -5 41 12 1 -3 -5 10 13 6 13 5 5 8 3 9 8 14 9 10 0 13 -7 13 48 -11 13 38 8 25 32 16 23 -2
22 25 28 17 13 31 10 38 14 -10 34 8 7 -18 41 11 9 1 -1 1 3 3 5 4 10 9 7 2 8 11 19 23 1 22 -16 37 30 5 10 21 13 10 11 13
5 25 50 39 7 10 -6 31 1 5 -0 14 18 5 -0 -6 24 38 -4 23 15 5 7 4 6 15 20 24 22 14 5 8 16 -2 29 18 -24 11 14 15 20 24 17 16
15 2 36 33 27 29 40 11 28 17 8 7 13 11 14 14 10 -5 2 2 1 5 9 11 31 23 20 13 12 11 16 16 7 4 6 -6 14 -7 13 19 11 7 11 19
22 10 25 39 -8 15 21 44 38 11 5 17 -1 10 12 7 3 11 10 7 6 6 7 13 13 8 4 15 12 14 12 15 -2 7 11 4 -15 6 24 19 -13 16 14 16
31 -8 21 27 30 11 13 75 22 22 -12 -9 28 0 8 9 7 2 11 6 7 8 11 5 15 13 2 14 8 9 9 14 11 11 -2 10 3 14 20 15 -22 11 12 13
26 -29 31 51 2 16 16 6 42 -4 19 -24 -2 41 8 4 4 1 3 15 9 15 13 7 8 14 7 9 2 3 6 13 13 18 5 21 -10 11 4 -0 11 7 10 11
22 11 14 27 6 4 -2 -9 67 8 2 30 -18 24 -19 25 6 10 9 -5 11 11 10 12 12 10 1 4 8 10 13 3 -4 2 -19 15 13 21 17 11 11 4 4 10
28 7 12 30 58 9 -11 26 50 15 2 2 3 -6 37 -11 21 10 10 11 -3 -5 13 2 4 3 8 4 17 5 14 9 -1 9 -13 19 23 9 8 20 13 6 5 9
19 23 19 6 26 -23 13 9 33 19 -7 -11 36 3 10 9 6 -3 10 11 0 3 10 -1 -0 -0 11 8 1 -0 -1 -3 5 4 12 15 10 15 13 5 8 8 6 7
11 26 12 37 27 34 36 20 16 6 1 62 0 26 -4 16 11 2 17 14 18 11 7 4 3 8 8 11 10 22 49 14 12 6 1 2 2 12 7 10 9 4 9 12
16 13 8 8 80 28 12 10 22 11 52 -53 6 25 9 26 3 11 23 2 -6 -2 7 7 13 11 -1 4 6 27 -5 -9 -1 6 7 12 17 10 10 10 13 13 11 11
16 14 4 19 8 35 -22 9 22 -5 55 -18 21 51 -4 -8 17 23 6 -2 3 7 6 6 3 1 2 6 11 -13 -22 1 11 18 1 11 21 16 8 8 9 8 9 10
20 17 10 21 20 33 9 3 8 6 44 -12 -20 16 47 19 2 6 13 20 21 17 13 10 10 15 12 16 14 22 27 13 -6 21 -3 5 11 20 12 11 4 4 7 7
23 17 11 34 -12 51 18 -46 41 12 30 -36 -5 -4 25 23 21 25 10 -3 5 -0 18 14 9 9 -6 26 37 18 -1 -5 2 4 5 8 13 2 21 9 12 8 5 8
27 14 -10 12 12 44 10 12 5 12 20 1 -9 17 -6 17 12 3 7 20 24 24 28 10 17 -3 7 11 1 -4 -2 7 5 11 21 26 20 12 10 20 9 9 5 4
19 9 14 18 16 34 35 -34 -1 -1 22 52 -2 -13 15 20 22 19 3 15 13 9 27 4 14 33 21 15 16 10 7 7 15 20 23 19 23 20 11 21 13 10 11 14
18 6 -6 65 0 3 -0 33 6 16 4 22 46 8 -2 4 11 3 27 4 19 8 21 8 17 15 6 4 8 10 3 14 22 14 12 14 31 19 13 5 5 6 13 8
4 7 34 5 14 11 18 24 22 8 29 -10 39 15 8 16 -13 9 7 13 10 11 12 14 16 17 21 11 -3 8 12 16 25 14 16 18 29 16 9 6 4 6 21 16
4 13 11 0 13 18 10 26 16 12 8 44 2 27 6 -12 21 12 9 7 6 6 7 10 5 4 10 21 17 11 19 16 17 18 18 18 19 22 16 11 12 23 14 13
8 11 17 11 9 28 23 32 28 6 -19 -2 23 12 -14 27 -10 9 8 18 10 13 16 12 15 16 19 24 21 18 11 2 0 -4 5 16 19 22 22 20 17 15 16 16
14 11 16 22 25 10 17 14 18 21 22 20 9 6 17 15 3 14 12 4 18 17 15 9 9 12 17 19 17 13 12 13 9 11 28 -2 12 14 13 14 14 16 14 14
9 20 22 16 18 14 20 15 18 14 12 1 -20 4 19 20 9 10 14 8 17 10 13 18 14 21 24 16 16 10 5 7 26 28 26 8 14 17 16 16 15 13 13 12
Height
3034 3041 3049 3056 3057 3061 3066 3069 3069 3073 3077 3081 3075 3072 3077 3081 3081 3082 3081 3080 3079 3077 3075 3072 3073 3068 3067 3066 3065 3062 3060 3055 3047 3042 3038 3036 3035 3033 3032 3027 3021 3016 3008 2994
3023 3027 3035 3042 3042 3048 3055 3056 3060 3063 3067 3065 3063 3067 3071 3073 3075 3076 3075 3075 3074 3073 3072 3072 3067 3065 3065 3064 3063 3060 3058 3053 3047 3039 3039 3036 3034 3031 3029 3025 3020 3012 3007 2994
3012 3015 3019 3027 3028 3035 3042 3045 3045 3048 3051 3053 3056 3062 3064 3066 3069 3070 3071 3070 3070 3069 3068 3067 3064 3061 3062 3061 3059 3057 3055 3049 3048 3044 3037 3035 3028 3025 3024 3022 3018 3011 3002 2994
3002 3004 3009 3012 3015 3018 3025 3022 3024 3030 3032 3038 3045 3057 3057 3058 3061 3064 3065 3064 3065 3065 3064 3062 3060 3059 3058 3058 3055 3052 3050 3045 3043 3037 3033 3030 3025 3021 3018 3015 3011 3009 2996 2996
2990 2990 2993 2996 3002 3007 3006 3003 3012 3019 3025 3031 3041 3044 3045 3051 3056 3058 3059 3060 3062 3060 3059 3060 3058 3056 3054 3052 3051 3049 3047 3042 3039 3029 3027 3026 3020 3017 3014 3009 3005 3000 2999 2997
2978 2977 2977 2981 2983 2989 2985 2990 3000 3010 3015 3023 3032 3030 3039 3046 3050 3052 3054 3057 3056 3055 3056 3054 3053 3051 3049 3049 3047 3045 3043 3040 3038 3027 3025 3020 3018 3015 3011 3007 3005 3002 2998 2998
2970 2964 2957 2965 2971 2973 2983 2988 2996 3001 3005 3013 3017 3028 3037 3039 3044 3047 3049 3050 3051 3052 3051 3050 3049 3046 3044 3043 3042 3041 3040 3039 3037 3029 3024 3022 3016 3013 3010 3006 3004 3002 2999 2997
2959 2958 2955 2956 2958 2966 2971 2981 2987 2991 2998 3008 3017 3022 3030 3034 3037 3040 3043 3045 3047 3047 3047 3046 3044 3041 3041 3040 3038 3037 3037 3036 3035 3032 3026 3018 3014 3012 3009 3006 3006 3003 3000 2997
2952 2952 2950 2951 2953 2959 2967 2970 2978 2986 2993 3000 3012 3017 3022 3027 3030 3034 3037 3040 3041 3043 3043 3043 3041 3040 3039 3038 3036 3034 3034 3033 3034 3032 3029 3021 3015 3012 3009 3007 3007 3005 3001 2998
2945 2947 2943 2944 2939 2954 2962 2964 2971 2981 2987 2996 3002 3008 3014 3021 3025 3028 3032 3034 3036 3037 3037 3039 3038 3038 3037 3035 3033 3031 3031 3030 3029 3030 3028 3018 3015 3012 3010 3010 3013 3006 3003 2999
2940 2939 2938 2937 2939 2947 2954 2961 2968 2973 2979 2989 2996 3001 3008 3014 3018 3023 3027 3031 3029 3031 3033 3035 3034 3033 3034 3032 3031 3029 3029 3028 3026 3026 3025 3019 3015 3014 3013 3012 3009 3008 3006 3002
2933 2933 2932 2930 2937 2939 2945 2952 2958 2967 2975 2983 2989 2995 3002 3008 3013 3018 3021 3024 3024 3025 3027 3029 3030 3029 3030 3030 3028 3027 3026 3026 3025 3024 3019 3016 3014 3012 3011 3010 3009 3008 3007 3005
2927 2926 2925 2927 2924 2931 2939 2943 2951 2960 2969 2978 2983 2991 2996 3002 3006 3010 3015 3017 3019 3022 3023 3025 3026 3027 3027 3027 3025 3024 3022 3021 3019 3020 3017 3015 3012 3012 3010 3009 3009 3008 3007 3007
2925 2921 2920 2921 2922 2923 2932 2937 2944 2955 2965 2971 2976 2984 2989 2994 3000 3004 3008 3012 3014 3017 3019 3020 3022 3024 3023 3022 3022 3020 3021 3019 3017 3016 3016 3014 3012 3010 3010 3010 3009 3008 3007 3007
2922 2921 2919 2918 2918 2921 2929 2934 2941 2950 2963 2966 2972 2979 2984 2988 2994 2998 3002 3005 3008 3011 3014 3015 3017 3018 3020 3019 3017 3013 3014 3015 3015 3014 3013 3012 3011 3010 3009 3009 3009 3008 3007 3007
2919 2918 2916 2915 2916 2919 2927 2932 2940 2947 2954 2963 2967 2973 2979 2984 2988 2991 2995 3000 3002 3005 3008 3010 3011 3012 3017 3015 3011 3012 3011 3012 3011 3011 3009 3009 3008 3008 3007 3007 3007 3007 3006 3006
2913 2914 2913 2912 2913 2915 2924 2929 2932 2942 2951 2958 2963 2966 2973 2977 2981 2985 2989 2993 2996 3000 3002 3004 3006 3008 3009 3006 3006 3008 3008 3008 3008 3007 3006 3006 3004 3004 3004 3005 3005 3006 3005 3005
2908 2909 2910 2910 2912 2917 2921 2927 2934 2940 2947 2955 2959 2961 2965 2971 2975 2980 2983 2987 2991 2993 2996 2998 3000 3002 3001 2998 3001 3003 3002 3004 3003 3003 3002 3001 3001 3000 3001 3001 3003 3004 3004 3005
2905 2906 2907 2908 2911 2914 2917 2928 2931 2937 2946 2947 2951 2957 2962 2965 2969 2973 2979 2982 2985 2989 2990 2992 2995 2993 2992 2994 2995 2996 2997 2997 2997 2997 2996 2996 2996 2996 2997 2998 2999 3000 3002 3002
2902 2905 2906 2906 2908 2911 2917 2927 2930 2934 2938 2945 2949 2955 2957 2962 2965 2969 2976 2978 2982 2983 2986 2986 2985 2983 2988 2990 2991 2992 2992 2991 2990 2989 2989 2987 2988 2990 2991 2992 2994 2995 2998 3000
2901 2903 2904 2906 2905 2908 2914 2921 2926 2930 2935 2938 2943 2949 2954 2958 2962 2966 2971 2973 2977 2978 2979 2981 2978 2977 2981 2984 2984 2985 2986 2985 2983 2982 2981 2980 2981 2983 2986 2988 2990 2992 2994 2995
2895 2896 2901 2904 2904 2906 2909 2915 2921 2923 2927 2929 2935 2944 2950 2955 2960 2963 2968 2971 2973 2973 2973 2974 2972 2974 2974 2977 2978 2979 2979 2978 2977 2976 2975 2975 2975 2977 2980 2983 2986 2988 2989 2991
2893 2896 2896 2897 2900 2900 2903 2906 2911 2915 2916 2925 2930 2937 2945 2952 2957 2960 2964 2965 2968 2969 2968 2967 2968 2968 2969 2972 2973 2973 2973 2973 2971 2971 2971 2970 2970 2973 2976 2979 2981 2983 2985 2987
2892 2892 2894 2895 2894 2895 2897 2898 2902 2911 2918 2921 2927 2933 2942 2946 2952 2957 2960 2962 2964 2963 2962 2962 2963 2964 2964 2967 2968 2968 2968 2968 2968 2967 2968 2968 2968 2969 2972 2975 2977 2979 2981 2983
2890 2891 2891 2892 2892 2893 2895 2898 2903 2910 2915 2920 2926 2934 2938 2942 2949 2952 2955 2957 2957 2956 2956 2957 2958 2958 2959 2960 2961 2962 2963 2965 2965 2965 2966 2966 2967 2968 2969 2971 2973 2976 2978 2980
2890 2890 2890 2891 2893 2894 2895 2896 2900 2906 2913 2918 2924 2928 2936 2941 2945 2947 2949 2951 2951 2951 2952 2953 2955 2955 2956 2957 2958 2959 2960 2961 2962 2963 2964 2966 2967 2967 2968 2970 2972 2974 2976 2978
2888 2888 2889 2891 2893 2894 2896 2898 2902 2906 2912 2916 2921 2927 2933 2937 2940 2943 2944 2946 2948 2949 2950 2952 2952 2953 2954 2955 2956 2956 2957 2958 2959 2961 2963 2964 2966 2966 2967 2969 2971 2973 2975 2977